OBJECT S, 61751

Orbit data source: Space-Track

You're viewing an Uncataloged Satellite

Recently launched and/or uncataloged satellites may have evolving metadata. Metadata may include but not limited to: Owner, Maufacturer, Bus, Motor, and Mission.

OBJECT S, 61751 is a satellite in SSO that was launched on Mon, 04 Nov 2024 UTC via a SOYUZ-2-1B launch vehicle from the Vostochny Cosmodrome (VOSTO). Unknown objects in Earth's orbit typically refer to objects detected orbiting the Earth but have not yet been identified or cataloged. These objects could be anything from previously untracked satellites, spent rocket stages, debris from satellite collisions, or even natural meteoroids temporarily captured by Earth's gravity.

Loading next visibility...
Identifier
61751, 2024-199S
Orbit
SSO
Country
Flag of TBDTBD
Related business
None
Manufacturer
Unknown
Mission
Operational Commercial Technology
Bus & Motor
Unknown
Mass
Unknown
Launch date (UTC)
2024-11-04 (2 years ago)
Launch vehicle
SOYUZ-2-1B
Launch site
Vostochny Cosmodrome (VOSTO)
Object type
Unknown
Shape & HBR
Box, 0.1 m
Radar Cross Section
0.035 m², Medium (>0.1 m² and < 1m²)

Expand to show TLE details & history
Last TLE update: 7 hours ago

TLE from 7 hours ago
0 OBJECT S
1 61751U 24199S   26127.90650193  .00007419  00000-0  21261-3 0  9992
2 61751  97.3049 357.6651 0011693  92.2499 268.0084 15.36129804130957
Epoch: 2026-05-07T21:45Z
TLE epoch observation values (Epoch: 2026-05-07T21:45:21.766Z)
Latitude
-0.00006°
Longitude
165.5785°
Altitude
460.969 km
Speed
7.636 km/s
True Right ascension
23h 50m 39s
True Declination
0° 00' 00"
Sunlit
Object was in daylight at epoch
Visualization orbit readout
Latitude
Unknown
Longitude
Unknown
Altitude
Unknown
Speed
Unknown
Apparent Right ascension
Unknown
Apparent Declination
Unknown
Sunlit
N/A
Visualization observer readout
Local Sidereal Time
12:40:07
Azimuth
Unknown
Elevation
Unknown
Doppler factor
Unknown
Orbital elements
Apogee altitude
462.496 km
Perigee altitude
446.517 km
Semi-major axis
6,832.644 km
Eccentricity
0.00117
Inclination
97.3049°
RAAN
357.6651°
Arg. of periapsis
92.2499°
True anomaly
267.8745°
Mean anomaly
268.0084°
Eccentric anomaly
267.94145°
Mean motion
3.84291 °/min
Orbital period
93.68 mins
BSTAR
0.00021261
Loading maneuver chart data...
Computing Atmospheric mass density...
Loading historical data...
Loading historical data...
Loading historical data...
Loading historical data...
Loading historical data...
Loading historical data...
Loading historical data...

Documentation

Showing up to 5 results
|